STARLINK-33809 (63508 NORAD) Tracking and Keplerian Element Data

This shows tracking and keplerian element data for the satellite.

Feedback or suggestion? Click here.




ElementValue
Catalog63508
NameSTARLINK-33809
Epoch Orbit4048
Epoch Day353.82302882
Epoch Year2025
RAAN150.7401
Inclination53.158
Eccentricity0.0001314
Argument of Perigee62.7425
Mean Anonmoly297.3709
Mean Motion15.30183396
Decay Rate0.00018099
L11 63508U 25071R 25353.82302882 .00018099 00000+0 62204-3 0 9991
L22 63508 53.1580 150.7401 0001314 62.7425 297.3709 15.30183396 40481



Live tracking and technical data element details for STARLINK-33809 (NORAD 63508). STARLINK-33809 can be tracked NOW for your location showing map with azimuth and elevation plus other details from your city location.







IsCatalogInMostPopularTable: catalog: 63508, numindb: 10
Update: records affected: 1



GetName: 63508 STARLINK-33809

Hit Count: updated at: Thu, 21 May 2026 10:52:51 GMT